User: anonymous   Login
Location: Unspecified
(0.0000°N, 0.0000°E)
Time: 02:54:16
(UTC+00:00)
Language:

ESTCUBE 1 - Orbit

View from above orbital plane
View from above orbital plane
View from above satellite
View from above satellite

Ground track
Ground track

The orbit data is extracted from the following two-line orbital elements,

1 39161U 13021C   18171.69810317  .00000132  00000-0  28792-4 0  9998
2 39161  98.0084 257.5051 0010756  52.8010 307.4173 14.72073088274964
Epoch (UTC): 20 June 2018 16:45:16
Eccentricity: 0.0010756
inclination: 98.0084°
perigee height: 647 km
apogee height: 662 km
right ascension of ascending node: 257.5051°
argument of perigee: 52.8010°
revolutions per day: 14.72073088
mean anomaly at epoch: 307.4173°
orbit number at epoch: 27496

The dashed part of the orbit path shows where the satellite is in the earth's shadow,  

DLR